Theta_e
298 298 298 297 297 297 297 297 297 298 298 298 298 298 299 299 299 300 300 300 300 301 301 301 300 299 299 299 298 299 299 299 299 299 298 299 299 300 300 300 299 299
295 295 295 295 295 295 295 294 294 295 295 295 295 295 296 296 296 297 298 298 299 299 300 300 300 300 300 299 299 298 298 298 299 298 298 298 298 298 298 299 299 299
292 292 293 293 293 293 293 292 292 293 293 293 293 293 293 293 293 293 293 294 295 296 297 298 299 299 300 300 299 299 299 298 298 298 298 298 298 297 297 297 298 298
290 290 290 290 290 290 291 291 291 291 291 291 291 291 291 291 291 290 290 291 291 292 293 294 295 297 298 299 299 299 299 299 298 297 297 297 297 297 297 297 297 297
289 289 289 288 288 288 289 289 289 289 289 290 290 290 290 290 290 290 290 289 289 289 289 290 290 292 293 295 297 298 299 299 298 297 297 297 297 296 296 296 296 296
289 289 288 288 288 288 288 288 288 288 288 288 288 288 288 289 289 289 289 289 289 289 289 289 289 289 289 290 291 293 295 297 298 298 297 297 297 296 296 296 295 296
288 288 288 288 288 288 288 288 287 287 287 287 287 287 287 287 287 287 288 288 288 288 288 288 288 288 288 288 288 289 290 292 294 295 297 298 298 297 296 295 295 295
287 287 287 287 287 287 287 287 287 287 287 287 287 287 287 287 287 287 287 287 287 287 287 288 288 288 288 288 288 288 288 288 289 290 292 294 296 297 297 296 295 294
287 287 287 287 287 287 287 287 287 287 287 287 287 287 287 287 287 287 287 287 287 287 287 287 287 287 287 287 288 288 288 287 287 287 288 289 291 293 295 296 296 296
287 287 287 287 287 287 287 287 287 287 287 287 287 287 287 287 287 287 287 287 287 287 287 287 287 287 287 287 287 287 287 287 287 287 287 287 287 288 290 292 294 295
287 287 287 287 287 287 287 287 287 287 287 287 287 287 287 286 286 286 286 286 286 286 286 286 286 286 287 286 286 286 286 286 287 287 287 287 287 287 287 287 289 291
288 288 288 288 287 287 287 287 287 287 286 286 286 286 286 286 286 286 286 285 286 286 286 286 286 286 286 286 286 286 286 286 286 286 286 286 287 287 287 286 286 287
288 288 288 288 288 287 287 287 287 287 286 286 286 286 286 286 286 286 285 285 285 285 285 285 285 285 285 285 286 286 286 286 286 286 286 286 286 286 286 286 286 286
288 288 288 288 288 287 287 287 286 286 286 286 286 285 285 285 285 285 285 285 285 285 285 285 285 285 285 285 285 285 285 285 285 286 286 286 286 286 286 286 286 286
288 288 288 287 287 287 287 286 286 286 285 285 285 285 285 285 285 285 285 285 285 285 285 285 285 285 285 285 285 285 285 285 285 285 285 285 286 286 286 286 286 286
288 288 287 287 286 286 286 285 285 285 285 285 285 285 285 285 285 285 285 285 285 285 285 285 285 285 285 285 284 284 284 284 284 284 284 284 285 285 285 286 286 286
288 287 286 286 285 285 284 284 284 284 284 284 284 284 284 284 284 284 284 284 284 284 284 284 284 285 285 284 284 284 283 283 283 284 284 284 284 284 284 285 285 285
286 286 285 284 284 283 283 283 283 283 283 283 283 283 283 283 283 284 284 284 284 284 284 284 284 284 284 284 284 284 283 283 283 283 283 283 283 283 284 284 284 284
285 284 283 283 283 282 282 282 282 282 281 281 281 282 282 282 283 283 283 283 283 283 284 284 284 284 284 284 284 283 283 282 282 282 282 282 282 283 283 283 284 284
283 283 282 282 282 281 281 281 281 281 281 281 280 281 281 281 282 282 282 282 283 282 282 283 284 284 284 283 283 282 282 281 280 280 280 281 281 282 282 282 283 283
282 282 282 281 281 280 280 280 280 280 280 280 279 280 280 280 280 280 281 281 281 281 281 281 282 283 282 281 280 280 279 278 278 278 279 279 280 280 281 281 281 282
282 281 281 281 280 280 280 280 280 279 279 279 278 279 279 279 279 279 279 279 280 279 278 279 281 281 280 279 277 277 276 276 276 277 277 278 278 279 279 280 280 281
281 281 281 280 280 280 280 280 279 279 279 278 278 278 278 278 278 278 278 278 278 277 276 276 278 279 278 276 274 274 274 274 275 275 275 276 276 277 277 278 278 279
281 280 280 280 280 279 279 279 279 279 278 278 277 277 277 277 276 276 276 276 275 275 274 273 274 275 274 273 273 272 272 272 272 273 273 273 274 274 275 275 276 277
280 280 280 279 279 279 279 279 278 278 278 277 276 276 276 275 274 273 274 274 273 272 272 271 272 273 273 272 271 271 270 270 270 271 271 272 272 272 273 273 274 274
280 279 279 278 278 278 278 278 278 277 277 276 276 275 274 274 273 272 272 273 271 270 271 270 270 271 271 270 269 269 268 269 269 270 270 271 271 271 272 272 272 272
Wind_Speed
11 12 12 12 12 12 12 12 12 12 13 13 13 14 14 14 14 14 13 13 13 13 12 12 12 12 12 13 14 15 17 18 19 20 22 24 27 30 33 35 36 37
11 10 10 10 10 11 12 12 13 13 13 13 14 14 14 14 14 14 14 14 14 14 14 14 14 14 13 12 13 15 16 18 19 19 20 23 24 27 30 32 34 36
11 10 9 8 8 9 10 11 12 12 13 14 14 15 16 17 18 18 17 17 16 16 15 15 16 16 16 15 15 15 16 17 18 18 20 22 23 25 27 29 32 34
12 11 10 10 9 8 8 9 9 10 11 12 13 15 17 18 20 20 21 21 20 20 19 19 18 17 18 18 18 18 18 18 18 18 20 21 22 24 25 26 29 32
13 12 12 12 12 12 11 11 11 11 11 11 12 13 14 16 18 20 21 22 23 24 24 24 23 22 21 20 20 20 21 20 20 19 20 22 21 22 24 25 27 30
14 14 14 14 14 14 14 14 15 15 14 14 14 14 14 15 16 18 19 21 23 24 25 26 27 27 26 25 24 23 22 23 23 22 22 23 22 22 23 24 26 29
16 16 17 17 17 16 17 17 17 17 17 18 17 17 18 18 18 19 20 21 22 23 24 26 27 28 29 30 30 28 27 25 25 25 26 26 25 24 23 23 26 28
17 18 18 19 20 20 20 20 21 21 22 22 22 22 22 22 22 22 22 23 24 24 25 25 26 27 28 30 31 32 32 30 28 27 27 28 28 28 26 25 26 28
17 18 19 20 21 22 22 23 23 24 25 25 26 26 26 26 26 26 26 26 26 26 27 27 27 28 28 29 30 31 33 33 33 32 30 30 30 30 30 29 29 30
18 19 20 21 22 23 24 25 26 26 27 28 28 29 29 29 30 30 30 30 30 30 29 29 29 29 29 29 29 30 31 33 34 35 35 34 33 32 31 31 31 32
21 22 23 25 26 27 27 28 29 29 30 30 31 31 32 32 32 32 33 34 34 34 34 33 33 33 33 32 31 31 31 32 33 34 35 37 37 36 34 33 33 33
22 23 25 27 28 29 30 31 32 32 33 33 33 34 34 34 35 35 36 37 37 38 38 38 38 38 38 37 36 35 35 34 34 34 34 36 37 39 38 36 35 35
22 24 25 27 28 29 30 31 32 33 35 35 36 37 37 38 39 39 40 41 41 42 42 42 42 43 43 42 42 41 40 40 39 38 37 37 37 38 39 40 39 38
25 26 27 28 29 30 31 33 34 35 36 38 39 40 41 42 43 44 45 46 46 47 47 47 47 48 48 47 47 46 46 46 45 44 43 42 41 39 39 40 41 41
30 31 32 32 33 34 35 35 37 38 39 40 42 43 44 46 47 48 49 50 51 52 52 52 52 53 52 51 50 49 49 49 49 48 48 47 47 46 43 42 41 42
34 34 35 36 36 37 37 38 39 40 42 43 43 45 46 47 49 50 52 53 55 56 56 57 57 57 56 55 53 52 51 51 51 51 51 50 50 51 50 49 47 45
35 36 37 37 37 38 39 41 42 43 44 45 45 47 47 48 50 52 53 54 55 57 58 59 60 60 59 57 55 54 52 52 52 52 52 52 52 53 54 54 53 51
35 36 37 38 39 40 42 43 44 45 46 47 47 48 49 50 52 53 54 54 55 56 58 59 60 61 60 59 57 55 53 52 52 52 52 52 52 53 54 55 56 56
35 36 38 39 40 42 43 44 45 46 47 47 48 49 50 51 52 53 54 55 55 56 57 58 59 60 59 58 57 56 55 54 52 51 51 52 52 52 53 55 56 56
35 37 39 41 41 42 43 44 45 46 46 46 47 48 49 51 52 53 54 55 56 56 57 59 60 59 59 58 58 58 57 55 52 50 50 51 52 53 53 54 55 55
38 40 41 42 43 43 44 45 45 45 46 46 46 48 50 51 52 54 55 56 57 57 58 60 61 61 60 60 59 59 57 54 51 50 51 52 53 54 54 53 53 53
40 41 42 43 44 45 45 45 45 45 46 47 48 49 51 52 53 54 55 57 58 58 58 60 62 62 61 60 59 56 53 51 49 50 51 52 54 56 55 54 53 51
41 42 43 44 44 44 44 45 46 47 47 47 48 50 52 52 53 54 55 57 58 58 57 58 62 62 60 58 56 51 47 46 47 49 50 52 55 57 56 56 56 54
42 43 43 43 43 43 44 45 46 47 48 48 49 51 53 53 53 54 56 56 55 55 54 54 58 60 57 54 53 50 46 45 46 48 51 54 56 57 57 57 58 58
42 42 42 42 42 43 44 46 47 48 49 50 50 52 53 54 53 53 55 55 52 50 49 48 50 53 51 48 47 45 42 41 42 44 48 51 52 54 55 56 57 59
41 40 40 41 43 44 45 46 47 49 50 50 51 52 52 53 52 51 52 53 49 46 45 44 44 46 45 42 40 38 36 35 37 40 43 45 47 48 51 54 55 57
Wind_Direction
53 46 41 39 37 35 32 29 24 20 18 16 14 12 10 6 3 0 357 354 351 348 343 334 324 313 300 288 277 270 266 262 259 255 253 253 256 257 258 258 258 258
58 52 45 38 32 27 23 20 15 12 10 8 5 2 359 358 355 353 351 349 346 343 340 336 331 324 314 303 288 279 274 270 266 261 257 255 255 256 257 258 258 258
58 56 52 45 37 26 19 12 4 3 2 359 356 354 353 352 351 350 349 346 344 341 338 335 332 328 322 317 307 295 286 279 273 268 263 260 258 257 257 257 258 258
50 48 46 44 39 32 23 11 1 358 354 351 349 348 348 347 346 346 345 345 344 343 341 338 334 331 326 321 317 311 303 293 284 276 269 266 262 261 259 258 259 259
35 34 33 31 29 26 20 14 10 7 3 357 352 348 345 342 340 340 340 341 341 341 340 339 337 335 331 326 322 318 314 308 300 289 278 272 268 265 263 261 260 259
15 13 13 13 13 12 9 8 7 4 2 0 357 353 348 345 342 339 337 337 337 337 336 336 335 335 333 331 327 323 319 315 311 304 295 287 279 272 267 264 263 262
4 1 360 358 357 357 356 356 354 352 351 350 349 347 344 343 342 340 338 337 335 334 333 332 331 330 330 329 328 326 323 319 315 311 306 301 296 288 278 271 268 266
359 356 354 352 350 348 347 347 345 344 343 341 340 339 338 337 336 334 334 333 332 332 330 329 328 326 325 324 323 323 322 321 319 315 310 306 303 299 294 287 280 273
349 347 346 345 344 342 341 341 340 339 338 336 335 335 334 333 331 330 329 328 327 326 324 324 323 322 321 320 319 318 317 317 317 315 313 309 305 302 301 298 294 287
340 339 338 337 336 335 335 335 334 333 333 332 331 330 330 330 328 327 326 324 323 321 320 318 317 316 316 315 315 314 312 311 311 310 309 309 307 305 303 301 299 295
335 334 333 332 332 331 331 331 330 330 329 328 327 327 326 326 326 325 324 323 321 320 319 318 316 314 312 311 311 309 308 306 305 304 303 303 303 303 302 300 298 297
325 325 326 327 327 327 327 327 327 326 325 325 325 324 324 324 324 323 321 320 319 319 318 317 316 314 312 311 310 308 306 304 301 299 297 296 296 297 298 297 296 295
317 317 318 319 319 320 321 321 321 321 321 322 322 322 322 322 321 320 319 317 316 316 315 314 313 312 311 310 309 307 305 303 301 299 297 294 291 291 292 293 293 292
318 318 318 317 316 316 317 317 318 319 319 320 320 320 320 320 319 318 316 315 314 313 312 311 310 309 308 307 306 305 303 302 300 298 297 295 292 289 287 287 288 289
320 321 320 318 317 317 317 318 318 318 318 318 318 318 318 317 316 315 314 313 312 311 310 309 307 306 305 305 303 302 300 298 297 295 294 293 292 290 288 284 282 283
319 319 318 317 317 317 317 317 317 317 317 316 316 316 315 314 313 312 312 311 310 309 308 306 305 304 303 302 301 299 298 296 295 293 291 290 289 288 287 285 284 281
316 315 315 314 315 315 315 316 315 315 314 314 313 313 312 311 310 309 308 308 307 306 305 304 303 302 301 300 299 298 297 296 295 294 292 290 288 286 285 284 284 283
312 312 313 313 314 314 314 313 313 312 312 311 310 310 309 308 307 306 305 304 303 302 301 300 299 299 298 298 297 297 296 295 295 294 293 291 289 287 286 285 283 283
310 310 311 311 312 312 311 311 310 309 309 308 308 308 307 306 306 304 303 302 301 299 298 297 296 295 295 295 295 295 295 295 294 292 291 289 287 286 285 284 283 283
309 309 310 311 311 310 310 309 308 307 307 307 306 306 305 304 304 303 301 300 299 298 297 295 294 294 294 293 293 293 293 294 293 291 288 286 284 283 282 282 282 281
310 311 311 311 311 311 310 309 309 308 308 308 306 305 304 303 302 301 300 299 298 297 295 294 294 294 293 293 292 292 292 292 291 289 286 284 282 280 279 279 279 278
312 312 312 312 312 311 311 311 311 311 310 309 307 305 303 302 300 299 298 297 296 295 294 293 293 293 292 292 292 293 293 293 291 289 286 283 281 280 278 277 276 275
313 314 313 313 313 312 313 313 313 312 310 309 307 305 303 302 300 299 297 296 295 295 294 293 293 293 293 293 293 294 294 292 290 287 285 282 280 279 278 277 275 274
314 314 314 313 313 314 314 314 313 312 311 309 308 306 304 303 301 300 298 297 296 296 296 295 295 294 295 294 293 292 291 289 287 285 283 281 280 279 278 278 276 274
315 314 313 314 314 315 315 314 314 313 313 312 310 308 306 305 304 302 301 300 300 300 300 299 298 297 297 298 297 295 294 292 289 287 284 283 283 283 282 281 278 275
314 314 314 316 317 317 317 317 317 316 315 314 312 310 309 308 307 307 306 305 306 306 305 304 303 303 304 306 306 303 300 296 292 289 286 285 285 284 283 282 280 278